This demonstration page uses our WeatherBlox Daily Observations layout. Learn more.

Left ArrowRight Arrow

Hourly Observations for February 29, 2016

Temp ( °F °C ) Dew Point ( °F °C ) Humidity (%) Winds ( mph kmh ) Pressure ( in mb ) Visibility ( mi km ) Precip ( " mm )
12:58 am 00:58 Clear 30 -1 27 -3 86 86 Calm 30.01 1016 10 16 0.00 0.00
1:58 am 01:58 Clear 28 -2 27 -3 93 93 SE 5 7 29.99 1016 10 16 0.00 0.00
2:58 am 02:58 Clear 30 -1 28 -2 93 93 S 6 9 29.96 1015 10 16 0.00 0.00
3:58 am 03:58 Clear 27 -3 27 -3 100 100 VRB 1 2 29.90 1013 10 16 0.00 0.00
4:58 am 04:58 Clear 32 0 27 -3 80 80 SSE 2 4 29.92 1013 10 16 0.00 0.00
5:58 am 05:58 Clear 32 -0.2 27 -2.9 82 82 SE 1 2 29.90 1013 10 16 0.00 0.00
6:59 am 06:59 Sunny 29 -1.5 27 -3 90 90 SE 9 15 29.89 1012 10 16 0.00 0.00
7:58 am 07:58 Sunny 34 1 31 -0.7 89 89 SE 7 11 29.91 1013 10 16 0.00 0.00
8:58 am 08:58 Sunny 41 5 32 0 70 70 SSE 2 4 29.91 1013 10 16 0.00 0.00
11:58 am 11:58 Mostly Cloudy 60 15.5 32 0 35 35 WSW 12 19 29.85 1011 10 16 0.00 0.00
12:58 pm 12:58 Mostly Cloudy 61 16.1 31 -0.4 33 33 W 3 6 29.83 1010 10 16 0.00 0.00
1:58 pm 13:58 Partly Cloudy 63 17.2 31 -0.5 30 30 W 1 2 29.79 1009 10 16 0.00 0.00
2:58 pm 14:58 Mostly Sunny 56 13.6 37 2.6 48 48 NE 18 30 29.80 1009 10 16 0.00 0.00
3:58 pm 15:58 Mostly Sunny 46 7.8 34 1.2 63 63 NNE 18 30 29.81 1010 10 16 0.00 0.00
4:58 pm 16:58 Mostly Cloudy 43 6.1 32 0.1 66 66 NNE 15 24 29.84 1011 10 16 0.00 0.00
5:58 pm 17:58 Partly Cloudy 41 5.2 30 -1.1 64 64 NE 14 22 29.84 1011 10 16 0.00 0.00
6:58 pm 18:58 Mostly Cloudy 40 4.4 29 -1.5 66 66 N 16 26 29.89 1012 10 16 0.00 0.00
7:58 pm 19:58 Mostly Cloudy 37 2.9 29 -1.5 73 73 N 16 26 29.91 1013 10 16 0.00 0.00
8:58 pm 20:58 Cloudy 35 1.5 25 -3.7 69 69 N 16 26 29.91 1013 10 16 0.00 0.00
9:58 pm 21:58 Mostly Clear 33 0.3 22 -5.7 64 64 N 10 17 29.96 1014 10 16 0.00 0.00
10:58 pm 22:58 Partly Cloudy 31 -0.6 20 -6.7 64 64 NNW 15 24 30.00 1016 10 16 0.00 0.00
11:58 pm 23:58 Partly Cloudy 29 -1.4 17 -8.1 61 61 N 12 19 30.03 1017 10 16 0.00 0.00

Powered by AerisWeather